• Processing (Info)

  • MPEC 2019-U199 : 2019 UW7

    The following Minor Planet Electronic Circular may be linked-to from your own Web pages, but must not otherwise be redistributed electronically.

    A form allowing access to any MPEC is at the bottom of this page.


    Read MPEC 2019-U198 Read MPEC 2019-U200


    M.P.E.C. 2019-U199                             Issued 2019 October 27, 02:43 UT
    
         The Minor Planet Electronic Circulars contain information on unusual
             minor planets and routine data on comets.  They are published
        on behalf of Division F of the International Astronomical Union by the
              Minor Planet Center, Smithsonian Astrophysical Observatory,
                              Cambridge, MA 02138, U.S.A.
    
                 Prepared using the Tamkin Foundation Computer Network
    
                                  MPC@CFA.HARVARD.EDU
                URL https://www.minorplanetcenter.net/    ISSN 1523-6714
    
                                    2019 UW7                                 
    
    
    Observations:
         K19U07W* C2019 10 26.29719 02 21 24.81 -02 46 44.7          18.6 GVEU199703
         K19U07W  C2019 10 26.30247 02 21 42.29 -02 46 21.8          18.6 GVEU199703
         K19U07W  C2019 10 26.30776 02 21 59.60 -02 46 00.7          19.3 GVEU199703
         K19U07W  C2019 10 26.31304 02 22 17.35 -02 45 38.8          18.5 GVEU199703
         K19U07W  C2019 10 26.35528302 24 34.28 -02 42 58.0          18.6 GVEU199H01
         K19U07W  C2019 10 26.35949402 24 47.95 -02 42 40.8          18.9 GVEU199H01
         K19U07W  C2019 10 26.36848602 25 17.03 -02 42 03.9          19.1 GVEU199H01
         K19U07W  C2019 10 26.37675102 25 43.66 -02 41 30.1          18.4 GVEU199H01
         K19U07W  C2019 10 26.38848 02 26 22.84 -02 40 29.6          18.4 GVEU199I52
         K19U07W  C2019 10 26.38872 02 26 23.61 -02 40 28.7          18.6 GVEU199I52
         K19U07W  C2019 10 26.38896 02 26 24.39 -02 40 27.5          19.2 GVEU199I52
         K19U07W  C2019 10 26.38921 02 26 25.15 -02 40 26.8          18.6 GVEU199I52
         K19U07W  C2019 10 26.87929 02 50 30.17 -02 13 21.3                VEU199246
         K19U07W  C2019 10 26.87949 02 50 30.80 -02 13 19.4          18.9 GVEU199246
         K19U07W  C2019 10 26.87964 02 50 31.02 -02 13 21.2                VEU199246
         K19U07W  C2019 10 26.88010 02 50 32.36 -02 13 19.0                VEU199246
         K19U07W  C2019 10 26.88039 02 50 32.71 -02 13 18.0                VEU199246
         K19U07W  C2019 10 26.88060 02 50 33.15 -02 13 17.0                VEU199246
         K19U07W  C2019 10 26.88964 02 50 54.46 -02 12 48.8                VEU199246
         K19U07W  C2019 10 26.88976 02 50 54.63 -02 12 49.2                VEU199246
         K19U07W  C2019 10 26.88987 02 50 54.85 -02 12 48.5                VEU199246
         K19U07W  C2019 10 26.88999 02 50 55.14 -02 12 48.2          18.6 GVEU199246
         K19U07W  C2019 10 26.89022 02 50 55.65 -02 12 49.1                VEU199246
         K19U07W KC2019 10 26.90639 02 51 35.71 -02 11 36.9          19.1 GVEU199203
         K19U07W KC2019 10 26.92005 02 52 04.55 -02 11 26.8          18.9 RVEU199113
         K19U07W KC2019 10 26.92483 02 52 17.74 -02 10 41.2          19.2 GVEU199203
         K19U07W KC2019 10 26.92520 02 52 16.19 -02 11 10.8          18.8 RVEU199113
         K19U07W KC2019 10 26.92753 02 52 21.53 -02 11 04.8          18.3 RVEU199113
         K19U07W KC2019 10 26.92986 02 52 26.77 -02 10 56.5          18.4 RVEU199113
         K19U07W KC2019 10 26.95908 02 53 34.22 -02 08 58.1          19.2 GVEU199203
         K19U07W KC2019 10 26.96205 02 53 40.92 -02 08 52.0                VEU199204
         K19U07W KC2019 10 26.96746 02 53 52.80 -02 08 35.6                VEU199204
         K19U07W KC2019 10 26.97066402 53 59.22 -02 08 15.4          19.7 GVEU199K63
         K19U07W KC2019 10 26.97287 02 54 04.66 -02 08 19.5          19.2 GVEU199204
         K19U07W KC2019 10 26.97324802 54 04.84 -02 08 07.2          18.9 GVEU199K63
         K19U07W KC2019 10 26.98286102 54 25.73 -02 07 39.8          19.7 GVEU199K63
         K19U07W KC2019 10 27.01290702 55 29.02 -02 06 17.3          18.9 GVEU199L01
         K19U07W KC2019 10 27.01395402 55 31.25 -02 06 14.4          19.3 GVEU199L01
         K19U07W KC2019 10 27.01500002 55 33.49 -02 06 11.3          19.3 GVEU199L01
         K19U07W KC2019 10 27.01605302 55 35.74 -02 06 08.0          19.4 GVEU199L01
    
    Observer details:
    113 Volkssternwarte Drebach, Schoenbrunn.  Observer A. Knofel.  0.5-m f/4.6 
       reflector + CCD.
    203 GiaGa Observatory.  Observers S. Foglia, G. Galli.  Measurer G. Galli.  
        0.36-m f/5.76 Schmidt-Cassegrain + CCD.
    204 Schiaparelli Observatory.  Observer L. Buzzi.  0.84-m f/3.5 reflector + CCD.
    246 Klet Observatory-KLENOT.  Observers M. Tichy, J. Ticha.  Measurer M. Tichy. 
        1.06-m f/2.7 reflector + 2048x2048 CCD.
    703 Catalina Sky Survey.  Observer T. A. Pruyne.  Measurers E. J. Christensen, 
       G. A. Farneth, D. C. Fuls, A. R. Gibbs, A. D. Grauer, H. Groeller, R. A. 
       Kowalski, S. M. Larson, G. J. Leonard, T. A. Pruyne, D. Rankin, R. L. Seaman,
        F. C. Shelly, K. W. Wierzchos.  0.68-m Schmidt + 10K CCD.
    H01 Magdalena Ridge Observatory, Socorro.  Observers W. H. Ryan, E. V. Ryan.  
        Measurer W. H. Ryan.  2.4-m f/8.9 Ritchey-Chretien + CCD.
    I52 Steward Observatory, Mt. Lemmon Station.  Observer D. C. Fuls.  Measurers 
       E. J. Christensen, G. A. Farneth, D. C. Fuls, A. R. Gibbs, A. D. Grauer, H. 
       Groeller, R. A. Kowalski, S. M. Larson, G. J. Leonard, T. A. Pruyne, D. 
       Rankin, R. L. Seaman, F. C. Shelly, K. W. Wierzchos.  1.0-m reflector + CCD.
    K63 G. Pascoli Observatory, Castelvecchio Pascoli.  Observer R. Bacci.  0.41-m 
       f/3.2 Newtonian reflector + CCD.
    L01 Visnjan Observatory, Tican.  Observers K. Korlevic, E. Pettarin, F. 
       Valentine.  Measurer E. Pettarin.  1.0-m f/2.9 reflector + CCD.
    
    Orbital elements:
    2019 UW7                                                 Earth MOID = 0.0030 AU
    Epoch 2019 Apr. 27.0 TT = JDT 2458600.5                 Veres
    M 310.92740              (2000.0)            P               Q
    n   0.30967756     Peri.  151.86330     +0.99803820     -0.03446235
    a   2.1636959      Node   210.24910     +0.01637249     +0.94948164
    e   0.5569353      Incl.    5.95565     +0.06042922     +0.31192460
    P   3.18           H   27.3           G   0.15           U   7
    Residuals in seconds of arc
    191026 703 (5.3+  0.3+)   191026 246  1.0+  0.6-    191026 113  0.2+  0.2+
    191026 703  1.6+  1.2+    191026 246 (4.8+  0.1+)   191026 203  1.2-  0.4+
    191026 703 (4.1-  0.2+)   191026 246  0.1-  0.2+    191026 204  0.2+  0.3-
    191026 703  1.8-  0.2+    191026 246  0.9-  0.6+    191026 204  0.0   0.1-
    191026 H01  0.2+  0.0     191026 246  1.7+  0.9+    191026 K63  0.3-  0.3-
    191026 H01  0.2+  0.1-    191026 246  0.0   0.1+    191026 204  0.2+  0.1-
    191026 H01  0.1+  0.1-    191026 246  0.5-  0.5+    191026 K63  0.6-  0.2+
    191026 H01  0.2+  0.1-    191026 246  0.3-  0.4+    191026 K63  0.7-  1.0-
    191026 I52  0.2-  0.3-    191026 246  0.7-  1.2-    191027 L01  0.2+  0.1+
    191026 I52  0.1-  0.4-    191026 203  0.6-  0.7+    191027 L01  0.1+  0.1-
    191026 I52  0.1+  0.2-    191026 113  1.2+  0.2-    191027 L01  0.3+  0.1-
    191026 I52  0.4-  0.5-    191026 203  0.7-  0.4+    191027 L01  0.4+  0.2+
    191026 246  0.5+  0.3+    191026 113  0.0   0.1+
    191026 246 (2.9+  1.6+)   191026 113  0.8+  1.0-
    
    Ephemeris:
    2019 UW7                 a,e,i = 2.16, 0.56, 6                   q = 0.9587
    Date    TT    R. A. (2000) Decl.     Delta      r    Elong.  Phase     V
    2019 09 27    16 54 10.3 -01 02 54   0.1580  0.9614    70.5   100.6    26.9
    ...
    2019 10 12    17 16 52.5 -01 10 18   0.07305 0.9668    62.6   113.6    25.9
    ...
    2019 10 20    18 04 44.9 -02 02 57   0.02730 0.9856    67.0   111.5    23.7
    ...
    2019 10 26    02 01 39.1 -03 02 22   0.01252 1.0064   164.8    15.0    18.6
    2019 10 27    02 55 01.5 -02 00 45   0.01728 1.0104   160.6    19.1    19.5
    2019 10 28    03 24 21.8 -01 23 15   0.02257 1.0145   156.1    23.4    20.2
    ...
    2019 11 03    04 17 19.4 -00 03 13   0.05701 1.0418   149.7    28.7    22.4
    ...
    2019 11 11    04 30 15.6 +00 41 34   0.1052  1.0848   152.8    24.7    23.7
    ...
    2019 11 26    04 32 19.8 +02 14 23   0.2037  1.1808   160.2    16.4    25.1
    
    A. U. Tomatic                (C) Copyright 2019 MPC           M.P.E.C. 2019-U199
    


    Read MPEC 2019-U198 Read MPEC 2019-U200


    MPEC number:

    Enter an MPEC number in one of the following forms:

    • 1997-B01 (the full form)
    • J97B01 (the packed version of the full form)
    • B01 (the abbreviated form)